Time,TemperatureF,DewpointF,PressureIn,WindDirection,WindDirectionDegrees,WindSpeedMPH,WindSpeedGustMPH,Humidity,HourlyPrecipIn,Conditions,Clouds,dailyrainin,SoftwareType,DateUTC
2013-02-09 00:02:00,40.0,26.0,29.97,WNW,285,2.0,4.0,58,0.00,,,0.53,,2013-02-09 05:02:00,
2013-02-09 00:12:00,40.0,26.0,29.97,WNW,285,2.0,4.0,58,0.00,,,0.53,,2013-02-09 05:12:00,
2013-02-09 00:22:00,40.0,27.0,29.97,WNW,284,0.0,3.0,59,0.00,,,0.45,,2013-02-09 05:22:00,
2013-02-09 00:32:00,40.0,27.0,29.97,West,277,0.0,2.0,59,0.00,,,0.45,,2013-02-09 05:32:00,
2013-02-09 00:42:00,40.0,27.0,29.97,West,277,0.0,2.0,59,0.00,,,0.45,,2013-02-09 05:42:00,
2013-02-09 00:52:00,39.0,26.0,29.97,West,281,0.0,5.0,59,0.00,,,0.45,,2013-02-09 05:52:00,
2013-02-09 01:02:00,39.0,26.0,29.97,West,279,1.0,4.0,60,0.00,,,0.45,,2013-02-09 06:02:00,
2013-02-09 01:11:00,39.0,26.0,29.97,West,279,1.0,4.0,60,0.00,,,0.45,,2013-02-09 06:11:00,
2013-02-09 01:21:00,39.0,26.0,29.97,WNW,284,0.0,4.0,60,0.00,,,0.35,,2013-02-09 06:21:00,
2013-02-09 01:32:00,39.0,26.0,29.97,West,281,1.0,4.0,60,0.00,,,0.35,,2013-02-09 06:32:00,
2013-02-09 01:42:00,39.0,26.0,29.97,West,281,1.0,4.0,60,0.00,,,0.35,,2013-02-09 06:42:00,
2013-02-09 01:52:00,39.0,26.0,29.98,WNW,283,1.0,4.0,60,0.00,,,0.35,,2013-02-09 06:52:00,
2013-02-09 02:01:00,38.0,25.0,29.99,NW,323,1.0,3.0,58,0.00,,,0.35,,2013-02-09 07:01:00,
2013-02-09 02:11:00,38.0,25.0,29.99,NW,323,1.0,3.0,58,0.00,,,0.35,,2013-02-09 07:11:00,
2013-02-09 02:21:00,38.0,25.0,29.99,WNW,297,0.0,3.0,58,0.00,,,0.26,,2013-02-09 07:21:00,
2013-02-09 02:31:00,38.0,24.0,29.99,SSW,197,0.0,4.0,57,0.00,,,0.26,,2013-02-09 07:31:00,
2013-02-09 02:42:00,38.0,24.0,29.99,SSW,197,0.0,4.0,57,0.00,,,0.26,,2013-02-09 07:42:00,
2013-02-09 02:52:00,38.0,23.0,29.99,WNW,286,1.0,4.0,55,0.00,,,0.26,,2013-02-09 07:52:00,
2013-02-09 03:01:00,38.0,23.0,29.99,West,281,1.0,3.0,55,0.00,,,0.26,,2013-02-09 08:01:00,
2013-02-09 03:11:00,38.0,23.0,29.99,West,281,1.0,3.0,55,0.00,,,0.26,,2013-02-09 08:11:00,
2013-02-09 03:21:00,37.0,23.0,29.99,West,270,0.0,4.0,56,0.00,,,0.20,,2013-02-09 08:21:00,
2013-02-09 03:32:00,37.0,23.0,29.99,West,281,1.0,5.0,56,0.00,,,0.20,,2013-02-09 08:32:00,
2013-02-09 03:42:00,37.0,23.0,29.99,West,281,1.0,5.0,56,0.00,,,0.20,,2013-02-09 08:42:00,
2013-02-09 03:52:00,37.0,23.0,29.99,West,281,1.0,5.0,56,0.00,,,0.20,,2013-02-09 08:52:00,
2013-02-09 04:03:00,37.0,23.0,30.00,West,270,0.0,3.0,56,0.00,,,0.20,,2013-02-09 09:03:00,
2013-02-09 04:11:00,37.0,23.0,30.00,West,270,0.0,3.0,56,0.00,,,0.20,,2013-02-09 09:11:00,
2013-02-09 04:22:00,36.0,23.0,30.01,West,270,0.0,1.0,58,0.00,,,0.14,,2013-02-09 09:22:00,
2013-02-09 04:32:00,36.0,23.0,30.03,West,270,0.0,0.0,59,0.00,,,0.14,,2013-02-09 09:32:00,
2013-02-09 04:42:00,36.0,23.0,30.03,West,270,0.0,0.0,59,0.00,,,0.14,,2013-02-09 09:42:00,
2013-02-09 04:52:00,35.0,23.0,30.03,West,270,0.0,2.0,61,0.00,,,0.14,,2013-02-09 09:52:00,
2013-02-09 05:01:00,34.0,23.0,30.04,West,271,1.0,3.0,65,0.00,,,0.14,,2013-02-09 10:01:00,
2013-02-09 05:11:00,34.0,23.0,30.04,West,271,1.0,3.0,65,0.00,,,0.14,,2013-02-09 10:11:00,
2013-02-09 05:21:00,34.0,23.0,30.05,West,271,1.0,2.0,65,0.00,,,0.09,,2013-02-09 10:21:00,
2013-02-09 05:32:00,34.0,24.0,30.06,West,274,0.0,2.0,66,0.00,,,0.09,,2013-02-09 10:32:00,
2013-02-09 05:42:00,34.0,24.0,30.06,West,274,0.0,2.0,66,0.00,,,0.09,,2013-02-09 10:42:00,
2013-02-09 05:52:00,33.0,23.0,30.07,West,274,0.0,0.0,67,0.00,,,0.09,,2013-02-09 10:52:00,
2013-02-09 06:01:00,33.0,24.0,30.07,West,274,0.0,2.0,68,0.00,,,0.09,,2013-02-09 11:01:00,
2013-02-09 06:11:00,33.0,24.0,30.07,West,274,0.0,2.0,68,0.00,,,0.09,,2013-02-09 11:11:00,
2013-02-09 06:22:00,33.0,24.0,30.07,West,274,0.0,2.0,68,0.00,,,0.09,,2013-02-09 11:22:00,
2013-02-09 06:32:00,32.0,23.0,30.09,West,274,0.0,1.0,70,0.00,,,0.05,,2013-02-09 11:32:00,
2013-02-09 06:42:00,32.0,23.0,30.09,West,274,0.0,1.0,70,0.00,,,0.05,,2013-02-09 11:42:00,
2013-02-09 06:52:00,32.0,24.0,30.10,West,274,0.0,1.0,72,0.00,,,0.05,,2013-02-09 11:52:00,
2013-02-09 07:02:00,31.0,23.0,30.11,West,274,0.0,1.0,72,0.00,,,0.05,,2013-02-09 12:02:00,
2013-02-09 07:11:00,31.0,23.0,30.11,West,274,0.0,1.0,72,0.00,,,0.05,,2013-02-09 12:11:00,
2013-02-09 07:22:00,31.0,24.0,30.11,West,274,0.0,3.0,74,0.00,,,0.02,,2013-02-09 12:22:00,
2013-02-09 07:32:00,31.0,24.0,30.13,West,274,0.0,1.0,75,0.00,,,0.02,,2013-02-09 12:32:00,
2013-02-09 07:42:00,31.0,24.0,30.13,West,274,0.0,1.0,75,0.00,,,0.02,,2013-02-09 12:42:00,
2013-02-09 07:53:00,31.0,24.0,30.14,West,274,0.0,2.0,74,0.00,,,0.02,,2013-02-09 12:53:00,
2013-02-09 08:02:00,32.0,24.0,30.15,West,274,0.0,2.0,72,0.00,,,0.02,,2013-02-09 13:02:00,
2013-02-09 08:11:00,32.0,24.0,30.15,West,274,0.0,2.0,72,0.00,,,0.02,,2013-02-09 13:11:00,
2013-02-09 08:22:00,35.0,23.0,30.16,West,275,0.0,3.0,62,0.00,,,0.01,,2013-02-09 13:22:00,
2013-02-09 08:32:00,35.0,21.0,30.17,West,275,0.0,3.0,57,0.00,,,0.01,,2013-02-09 13:32:00,
2013-02-09 08:52:00,37.0,21.0,30.18,WNW,283,0.0,3.0,52,0.00,,,0.01,,2013-02-09 13:52:00,
2013-02-09 09:11:00,37.0,21.0,30.18,WNW,283,0.0,3.0,52,0.00,,,0.01,,2013-02-09 14:11:00,
2013-02-09 09:21:00,38.0,21.0,30.18,West,279,1.0,3.0,50,0.00,,,0.01,,2013-02-09 14:21:00,
2013-02-09 09:32:00,39.0,21.0,30.19,West,281,1.0,4.0,49,0.00,,,0.00,,2013-02-09 14:32:00,
2013-02-09 09:42:00,39.0,21.0,30.19,West,281,1.0,4.0,49,0.00,,,0.00,,2013-02-09 14:42:00,
2013-02-09 09:52:00,40.0,21.0,30.19,SSE,161,0.0,4.0,46,0.00,,,0.00,,2013-02-09 14:52:00,
2013-02-09 10:02:00,41.0,20.0,30.20,WNW,297,2.0,4.0,42,0.00,,,0.00,,2013-02-09 15:02:00,
2013-02-09 10:11:00,41.0,20.0,30.20,WNW,297,2.0,4.0,42,0.00,,,0.00,,2013-02-09 15:11:00,
2013-02-09 10:22:00,41.0,19.0,30.20,WNW,293,1.0,6.0,41,0.00,,,0.00,,2013-02-09 15:22:00,
2013-02-09 10:32:00,42.0,19.0,30.20,NNW,338,1.0,6.0,39,0.00,,,0.00,,2013-02-09 15:32:00,
2013-02-09 10:42:00,42.0,19.0,30.20,NNW,338,1.0,6.0,39,0.00,,,0.00,,2013-02-09 15:42:00,
2013-02-09 10:51:00,42.0,17.0,30.21,North,355,1.0,6.0,36,0.00,,,0.00,,2013-02-09 15:51:00,
2013-02-09 11:01:00,42.0,17.0,30.21,North,355,1.0,6.0,36,0.00,,,0.00,,2013-02-09 16:01:00,
2013-02-09 11:11:00,42.0,17.0,30.21,North,355,1.0,6.0,36,0.00,,,0.00,,2013-02-09 16:11:00,
2013-02-09 11:22:00,43.0,17.0,30.22,West,270,1.0,3.0,35,0.00,,,0.00,,2013-02-09 16:22:00,
2013-02-09 11:32:00,43.0,17.0,30.22,West,273,2.0,6.0,34,0.00,,,0.00,,2013-02-09 16:32:00,
2013-02-09 11:42:00,43.0,17.0,30.22,West,273,2.0,6.0,34,0.00,,,0.00,,2013-02-09 16:42:00,
2013-02-09 11:52:00,44.0,17.0,30.22,WNW,298,1.0,6.0,33,0.00,,,0.00,,2013-02-09 16:52:00,
2013-02-09 12:01:00,44.0,17.0,30.22,West,281,2.0,7.0,34,0.00,,,0.00,,2013-02-09 17:01:00,
2013-02-09 12:11:00,44.0,17.0,30.22,West,281,2.0,7.0,34,0.00,,,0.00,,2013-02-09 17:11:00,
2013-02-09 12:21:00,46.0,18.0,30.21,West,264,1.0,4.0,32,0.00,,,0.00,,2013-02-09 17:21:00,
2013-02-09 12:32:00,46.0,16.0,30.21,WNW,288,1.0,5.0,30,0.00,,,0.00,,2013-02-09 17:32:00,
2013-02-09 12:42:00,46.0,16.0,30.21,WNW,288,1.0,5.0,30,0.00,,,0.00,,2013-02-09 17:42:00,
2013-02-09 12:52:00,46.0,16.0,30.20,NW,318,2.0,6.0,30,0.00,,,0.00,,2013-02-09 17:52:00,
2013-02-09 13:02:00,47.0,16.0,30.20,West,281,2.0,4.0,28,0.00,,,0.00,,2013-02-09 18:02:00,
2013-02-09 13:12:00,47.0,16.0,30.20,West,281,2.0,4.0,28,0.00,,,0.00,,2013-02-09 18:12:00,
2013-02-09 13:23:00,48.0,16.0,30.20,ESE,123,1.0,7.0,28,0.00,,,0.00,,2013-02-09 18:23:00,
2013-02-09 13:32:00,49.0,13.0,30.20,WNW,286,1.0,7.0,23,0.00,,,0.00,,2013-02-09 18:32:00,
2013-02-09 13:42:00,49.0,13.0,30.20,WNW,286,1.0,7.0,23,0.00,,,0.00,,2013-02-09 18:42:00,
2013-02-09 13:52:00,49.0,15.0,30.19,WNW,301,2.0,6.0,25,0.00,,,0.00,,2013-02-09 18:52:00,
2013-02-09 14:02:00,49.0,12.0,30.19,ENE,74,0.0,4.0,22,0.00,,,0.00,,2013-02-09 19:02:00,
2013-02-09 14:11:00,49.0,12.0,30.19,ENE,74,0.0,4.0,22,0.00,,,0.00,,2013-02-09 19:11:00,
2013-02-09 14:22:00,49.0,16.0,30.19,East,97,0.0,4.0,26,0.00,,,0.00,,2013-02-09 19:22:00,
2013-02-09 14:32:00,50.0,13.0,30.18,WNW,290,0.0,4.0,22,0.00,,,0.00,,2013-02-09 19:32:00,
2013-02-09 14:42:00,50.0,13.0,30.18,WNW,290,0.0,4.0,22,0.00,,,0.00,,2013-02-09 19:42:00,
2013-02-09 14:52:00,50.0,16.0,30.18,ENE,58,1.0,6.0,25,0.00,,,0.00,,2013-02-09 19:52:00,
2013-02-09 15:02:00,50.0,15.0,30.18,ENE,67,1.0,4.0,24,0.00,,,0.00,,2013-02-09 20:02:00,
2013-02-09 15:11:00,50.0,15.0,30.18,ENE,67,1.0,4.0,24,0.00,,,0.00,,2013-02-09 20:11:00,
2013-02-09 15:22:00,49.0,13.0,30.18,West,272,3.0,7.0,23,0.00,,,0.00,,2013-02-09 20:22:00,
2013-02-09 15:32:00,49.0,14.0,30.18,West,281,1.0,5.0,24,0.00,,,0.00,,2013-02-09 20:32:00,
2013-02-09 15:42:00,49.0,14.0,30.18,West,281,1.0,5.0,24,0.00,,,0.00,,2013-02-09 20:42:00,
2013-02-09 15:52:00,50.0,13.0,30.18,West,269,1.0,4.0,22,0.00,,,0.00,,2013-02-09 20:52:00,
2013-02-09 16:02:00,50.0,13.0,30.19,WNW,286,0.0,5.0,22,0.00,,,0.00,,2013-02-09 21:02:00,
2013-02-09 16:12:00,50.0,13.0,30.19,WNW,286,0.0,5.0,22,0.00,,,0.00,,2013-02-09 21:12:00,
2013-02-09 16:22:00,50.0,15.0,30.19,WNW,300,0.0,5.0,24,0.00,,,0.00,,2013-02-09 21:22:00,
2013-02-09 16:32:00,49.0,12.0,30.18,WNW,294,2.0,6.0,22,0.00,,,0.00,,2013-02-09 21:32:00,
2013-02-09 16:42:00,49.0,12.0,30.18,WNW,294,2.0,6.0,22,0.00,,,0.00,,2013-02-09 21:42:00,
2013-02-09 16:52:00,49.0,14.0,30.18,West,278,1.0,3.0,24,0.00,,,0.00,,2013-02-09 21:52:00,
2013-02-09 17:01:00,49.0,15.0,30.19,West,281,0.0,2.0,25,0.00,,,0.00,,2013-02-09 22:01:00,
2013-02-09 17:11:00,49.0,15.0,30.19,West,281,0.0,2.0,25,0.00,,,0.00,,2013-02-09 22:11:00,
2013-02-09 17:22:00,49.0,13.0,30.20,West,275,0.0,4.0,23,0.00,,,0.00,,2013-02-09 22:22:00,
2013-02-09 17:32:00,49.0,15.0,30.21,West,274,0.0,3.0,25,0.00,,,0.00,,2013-02-09 22:32:00,
2013-02-09 17:42:00,49.0,15.0,30.21,West,274,0.0,3.0,25,0.00,,,0.00,,2013-02-09 22:42:00,
2013-02-09 17:52:00,47.0,17.0,30.21,WNW,297,0.0,2.0,30,0.00,,,0.00,,2013-02-09 22:52:00,
2013-02-09 18:02:00,47.0,16.0,30.22,WSW,237,0.0,2.0,29,0.00,,,0.00,,2013-02-09 23:02:00,
2013-02-09 18:11:00,47.0,16.0,30.22,WSW,237,0.0,2.0,29,0.00,,,0.00,,2013-02-09 23:11:00,
2013-02-09 18:22:00,45.0,18.0,30.21,WSW,237,0.0,1.0,34,0.00,,,0.00,,2013-02-09 23:22:00,
2013-02-09 18:32:00,44.0,19.0,30.22,WSW,237,0.0,0.0,36,0.00,,,0.00,,2013-02-09 23:32:00,
2013-02-09 18:42:00,44.0,19.0,30.22,WSW,237,0.0,0.0,36,0.00,,,0.00,,2013-02-09 23:42:00,
2013-02-09 18:52:00,43.0,19.0,30.22,WSW,237,0.0,1.0,38,0.00,,,0.00,,2013-02-09 23:52:00,
2013-02-09 19:02:00,42.0,20.0,30.22,WSW,237,0.0,1.0,41,0.00,,,0.00,,2013-02-10 00:02:00,
2013-02-09 19:12:00,42.0,20.0,30.22,WSW,237,0.0,1.0,41,0.00,,,0.00,,2013-02-10 00:12:00,
2013-02-09 19:22:00,40.0,23.0,30.23,WSW,237,0.0,1.0,50,0.00,,,0.00,,2013-02-10 00:22:00,
2013-02-09 19:32:00,38.0,22.0,30.23,WSW,237,0.0,1.0,53,0.00,,,0.00,,2013-02-10 00:32:00,
2013-02-09 19:42:00,38.0,22.0,30.23,WSW,237,0.0,1.0,53,0.00,,,0.00,,2013-02-10 00:42:00,
2013-02-09 19:52:00,37.0,24.0,30.24,WSW,237,0.0,1.0,58,0.00,,,0.00,,2013-02-10 00:52:00,
2013-02-09 20:01:00,36.0,23.0,30.25,WSW,237,1.0,2.0,59,0.00,,,0.00,,2013-02-10 01:01:00,
2013-02-09 20:12:00,36.0,23.0,30.25,WSW,237,1.0,2.0,59,0.00,,,0.00,,2013-02-10 01:12:00,
2013-02-09 20:22:00,35.0,23.0,30.26,WSW,237,0.0,1.0,60,0.00,,,0.00,,2013-02-10 01:22:00,
2013-02-09 20:32:00,35.0,23.0,30.25,WSW,237,0.0,1.0,62,0.00,,,0.00,,2013-02-10 01:32:00,
2013-02-09 20:42:00,35.0,23.0,30.25,WSW,237,0.0,1.0,62,0.00,,,0.00,,2013-02-10 01:42:00,
2013-02-09 20:51:00,34.0,22.0,30.26,WSW,237,0.0,2.0,61,0.00,,,0.00,,2013-02-10 01:51:00,
2013-02-09 21:01:00,33.0,22.0,30.26,WSW,237,1.0,2.0,63,0.00,,,0.00,,2013-02-10 02:01:00,
2013-02-09 21:11:00,33.0,22.0,30.26,WSW,237,1.0,2.0,63,0.00,,,0.00,,2013-02-10 02:11:00,
2013-02-09 21:22:00,33.0,23.0,30.27,WSW,246,0.0,0.0,65,0.00,,,0.00,,2013-02-10 02:22:00,
2013-02-09 21:32:00,33.0,21.0,30.27,WSW,246,1.0,2.0,60,0.00,,,0.00,,2013-02-10 02:32:00,
2013-02-09 21:42:00,33.0,21.0,30.27,WSW,246,1.0,2.0,60,0.00,,,0.00,,2013-02-10 02:42:00,
2013-02-09 21:52:00,33.0,22.0,30.27,WSW,246,0.0,2.0,64,0.00,,,0.00,,2013-02-10 02:52:00,
2013-02-09 22:02:00,32.0,21.0,30.28,WSW,246,0.0,1.0,63,0.00,,,0.00,,2013-02-10 03:02:00,
2013-02-09 22:11:00,32.0,21.0,30.28,WSW,246,0.0,1.0,63,0.00,,,0.00,,2013-02-10 03:11:00,
2013-02-09 22:22:00,33.0,22.0,30.28,WSW,246,0.0,0.0,63,0.00,,,0.00,,2013-02-10 03:22:00,
2013-02-09 22:32:00,32.0,22.0,30.27,WSW,246,0.0,0.0,66,0.00,,,0.00,,2013-02-10 03:32:00,
2013-02-09 22:42:00,32.0,22.0,30.27,WSW,246,0.0,0.0,66,0.00,,,0.00,,2013-02-10 03:42:00,
2013-02-09 22:51:00,32.0,22.0,30.27,WSW,246,0.0,2.0,66,0.00,,,0.00,,2013-02-10 03:51:00,
2013-02-09 23:01:00,31.0,21.0,30.27,WSW,246,0.0,2.0,65,0.00,,,0.00,,2013-02-10 04:01:00,
2013-02-09 23:11:00,31.0,21.0,30.27,WSW,246,0.0,2.0,65,0.00,,,0.00,,2013-02-10 04:11:00,
2013-02-09 23:22:00,31.0,21.0,30.29,WSW,246,0.0,0.0,66,0.00,,,0.00,,2013-02-10 04:22:00,
2013-02-09 23:32:00,30.0,21.0,30.29,WSW,246,0.0,1.0,69,0.00,,,0.00,,2013-02-10 04:32:00,
2013-02-09 23:42:00,30.0,21.0,30.29,WSW,246,0.0,1.0,69,0.00,,,0.00,,2013-02-10 04:42:00,
2013-02-09 23:52:00,30.0,21.0,30.29,WSW,246,0.0,1.0,70,0.00,,,0.00,,2013-02-10 04:52:00,